Location: Unspecified
(50.7693°N, 0.0000°E)
Time: 06:09:34
(UTC+00:00)

Transit 4A - Pass Details

Date: 29 June 2019
Orbit: 862 x 982 km, 66.8° (Epoch: 18 July)

Event Time Altitude Azimuth Distance (km) Brightness Sun altitude
Rises 11:57:32 0° 311° (NW) 3,695 10.8 62.4°
Reaches altitude 10° 12:00:50 10° 327° (NNW) 2,747 10.2 62.5°
Maximum altitude 12:05:37 21° 15° (NNE) 2,038 9.7 62.5°
Drops below altitude 10° 12:10:22 10° 63° (ENE) 2,720 10.3 62.4°
Sets 12:13:36 0° 79° (E) 3,649 10.9 62.4°
